FW2458 Weather Reports


Display with metric or nautical units.
time (UTC)temp
F
wind
direction
speed
MPH
gust
MPH
rain 1hr
in
rain 24hr
in
rain mn
in
humidity
%
barometer
mb
20260904225040 79 74 0.0 1.0 0.00 0.11 0.11 69 1011.1
20260904224807 79 74 0.0 2.0 0.00 0.11 0.11 67 1011.0
20260904223824 79 74 0.0 2.0 0.00 0.11 0.11 67 1011.2
20260904223557 79 74 0.0 2.0 0.00 0.11 0.11 66 1011.1
20260904222821 80 74 0.0 2.0 0.00 0.11 0.11 66 1011.2
20260904222321 80 74 0.0 1.0 0.00 0.11 0.11 66 1011.2
20260904221822 80 74 0.0 2.0 0.00 0.11 0.11 65 1011.2
20260904221543 80 74 1.0 2.0 0.00 0.11 0.11 65 1011.2
20260904221039 80 74 0.0 3.0 0.00 0.11 0.11 64 1011.3
20260904220318 80 74 0.0 3.0 0.00 0.11 0.11 64 1011.2
20260904215819 80 74 0.0 4.0 0.00 0.11 0.11 64 1011.1
20260904215552 81 74 0.0 4.0 0.00 0.11 0.11 64 1011.1
20260904214817 81 74 0.0 4.0 0.00 0.11 0.11 63 1010.9
20260904214316 81 74 1.0 4.0 0.00 0.11 0.11 63 1011.1
20260904213817 81 73 1.0 3.0 0.00 0.11 0.11 64 1011.1
20260904213319 81 64 1.0 3.0 0.00 0.11 0.11 63 1011.0
20260904212818 81 73 1.0 3.0 0.00 0.11 0.11 63 1011.0
20260904212314 81 74 1.0 3.0 0.00 0.11 0.11 62 1010.8
20260904211812 82 117 1.0 5.0 0.00 0.11 0.11 63 1010.8
20260904211306 82 155 1.0 5.0 0.00 0.11 0.11 62 1010.9
20260904211027 82 86 1.0 5.0 0.00 0.11 0.11 62 1010.8
20260904210306 82 48 2.0 5.0 0.00 0.11 0.11 61 1010.7
20260904205801 82 69 1.0 5.0 0.00 0.11 0.11 61 1010.8
20260904205305 82 101 1.0 4.0 0.00 0.11 0.11 62 1010.9
20260904204802 82 109 2.0 7.0 0.00 0.11 0.11 61 1011.0
20260904204306 82 95 2.0 7.0 0.00 0.11 0.11 61 1011.1
20260904203804 82 73 2.0 5.0 0.00 0.11 0.11 61 1011.1
20260904203526 82 67 2.0 5.0 0.00 0.11 0.11 62 1011.2
20260904202801 82 80 2.0 4.0 0.00 0.11 0.11 62 1011.3
20260904202745 82 55 1.0 4.0 0.00 0.11 0.11 60 1011.2
20260904201812 83 81 1.0 4.0 0.00 0.11 0.11 63 1011.3
20260904201258 83 101 1.0 4.0 0.00 0.11 0.11 63 1011.3
20260904200756 83 249 1.0 10.0 0.00 0.11 0.11 61 1011.3
20260904200257 83 232 1.0 10.0 0.00 0.11 0.11 58 1011.3
20260904200025 84 110 2.0 10.0 0.00 0.11 0.11 59 1011.3
20260904195252 85 212 2.0 10.0 0.00 0.11 0.11 58 1011.3
20260904195006 85 219 2.0 5.0 0.00 0.11 0.11 57 1011.4
20260904194236 85 199 1.0 5.0 0.00 0.11 0.11 59 1011.3
20260904193729 85 63 1.0 5.0 0.00 0.11 0.11 56 1011.4
20260904193223 85 80 2.0 5.0 0.00 0.11 0.11 58 1011.5
20260904192714 85 309 2.0 6.0 0.00 0.11 0.11 58 1011.6
20260904192208 85 217 1.0 6.0 0.00 0.11 0.11 59 1011.5
20260904191702 85 179 1.0 4.0 0.00 0.11 0.11 58 1011.5
20260904191152 84 51 2.0 4.0 0.00 0.11 0.11 60 1011.5
20260904190647 84 176 2.0 9.0 0.00 0.11 0.11 58 1011.5
20260904190145 84 128 2.0 9.0 0.00 0.11 0.11 60 1011.8
20260904185642 84 71 2.0 9.0 0.00 0.11 0.11 60 1011.8
20260904185141 84 209 2.0 9.0 0.00 0.11 0.11 59 1011.9
20260904184654 84 62 1.0 5.0 0.00 0.11 0.11 61 1012.0
20260904184140 84 160 1.0 5.0 0.00 0.11 0.11 59 1012.0
20260904183827 84 188 1.0 5.0 0.00 0.11 0.11 60 1012.0
20260904183140 84 210 1.0 4.0 0.00 0.11 0.11 60 1012.0
20260904182639 84 186 2.0 8.0 0.00 0.11 0.11 59 1012.1
20260904182140 84 84 2.0 8.0 0.00 0.11 0.11 58 1012.0
20260904181639 84 193 2.0 8.0 0.00 0.11 0.11 59 1012.1
20260904181141 84 217 2.0 8.0 0.00 0.11 0.11 59 1012.1
20260904180641 84 73 2.0 8.0 0.00 0.11 0.11 62 1012.0
20260904180406 84 112 2.0 8.0 0.00 0.11 0.11 60 1012.0
20260904175641 84 177 2.0 10.0 0.00 0.11 0.11 62 1011.9
20260904175134 84 118 2.0 10.0 0.00 0.11 0.11 60 1011.9
20260904174630 84 102 2.0 6.0 0.00 0.11 0.11 63 1011.9
20260904174129 83 90 3.0 9.0 0.00 0.11 0.11 61 1011.9
20260904173633 83 83 3.0 9.0 0.00 0.11 0.11 61 1012.0
20260904173131 83 80 3.0 9.0 0.00 0.11 0.11 61 1011.9
20260904172631 83 134 3.0 9.0 0.00 0.11 0.11 60 1011.9
20260904172129 84 91 2.0 8.0 0.00 0.11 0.11 61 1012.0
20260904171631 84 176 2.0 8.0 0.00 0.11 0.11 62 1011.9
20260904171130 84 146 2.0 8.0 0.00 0.11 0.11 60 1012.0
20260904170631 84 127 2.0 6.0 0.00 0.11 0.11 63 1012.0
20260904170351 83 207 2.0 8.0 0.00 0.11 0.11 62 1011.9
20260904165625 83 212 2.0 8.0 0.00 0.11 0.11 65 1012.0
20260904165125 82 53 2.0 8.0 0.00 0.11 0.11 66 1012.1
20260904164625 82 86 2.0 8.0 0.00 0.11 0.11 65 1012.2
20260904164125 82 187 2.0 8.0 0.00 0.11 0.11 66 1012.1
20260904163627 82 40 2.0 8.0 0.00 0.11 0.11 67 1012.0
20260904163125 83 80 2.0 8.0 0.00 0.11 0.11 65 1012.0
20260904162625 83 209 2.0 8.0 0.00 0.11 0.11 66 1012.0
20260904162126 84 184 2.0 8.0 0.00 0.11 0.11 65 1012.1
20260904161635 83 92 2.0 8.0 0.00 0.11 0.11 65 1012.1
20260904161122 83 168 3.0 8.0 0.00 0.11 0.11 66 1012.1
20260904161106 83 58 2.0 8.0 0.00 0.11 0.11 68 1012.1
20260904160123 83 40 2.0 6.0 0.00 0.11 0.11 67 1012.1
20260904155623 83 187 2.0 6.0 0.00 0.11 0.11 66 1012.0
20260904155122 83 171 2.0 6.0 0.00 0.11 0.11 67 1012.1
20260904154623 83 214 2.0 6.0 0.00 0.11 0.11 67 1012.1
20260904154123 83 194 2.0 6.0 0.00 0.11 0.11 66 1012.1
20260904153617 83 5 2.0 9.0 0.00 0.11 0.11 66 1012.2
20260904153117 83 207 1.0 9.0 0.00 0.11 0.11 69 1012.2
20260904152615 83 73 2.0 9.0 0.00 0.11 0.11 68 1012.4
20260904152340 83 73 3.0 9.0 0.00 0.11 0.11 66 1012.3
20260904151615 83 65 2.0 6.0 0.00 0.11 0.11 67 1012.4
20260904151115 83 136 2.0 6.0 0.00 0.11 0.11 66 1012.5
20260904150615 83 99 1.0 6.0 0.00 0.11 0.11 70 1012.5
20260904150129 82 128 1.0 8.0 0.00 0.11 0.11 70 1012.4
20260904145616 82 140 2.0 8.0 0.00 0.11 0.11 70 1012.5
20260904145115 81 69 3.0 8.0 0.00 0.11 0.11 72 1012.6
20260904144610 81 88 3.0 8.0 0.00 0.11 0.11 70 1012.6
20260904144336 82 82 2.0 8.0 0.00 0.11 0.11 69 1012.4
20260904143553 82 60 2.0 5.0 0.00 0.11 0.11 72 1012.3
20260904143048 81 61 3.0 8.0 0.00 0.11 0.11 73 1012.5
20260904142539 81 65 3.0 8.0 0.00 0.11 0.11 70 1012.4
20260904142312 81 103 2.0 7.0 0.00 0.11 0.11 70 1012.5
20260904141540 82 89 1.0 7.0 0.00 0.11 0.11 72 1012.4
20260904141041 82 92 1.0 5.0 0.00 0.11 0.11 72 1012.4
20260904140540 81 144 1.0 5.0 0.00 0.11 0.11 75 1012.4
20260904140039 81 74 1.0 5.0 0.00 0.11 0.11 75 1012.4
20260904135800 80 94 1.0 4.0 0.00 0.11 0.11 76 1012.3
20260904135040 80 130 1.0 4.0 0.00 0.11 0.11 76 1012.3
20260904134541 80 57 1.0 4.0 0.00 0.11 0.11 77 1012.3
20260904134040 80 69 1.0 6.0 0.00 0.11 0.11 77 1012.3
20260904133540 79 74 2.0 6.0 0.00 0.11 0.11 78 1012.4
20260904133309 79 81 2.0 6.0 0.00 0.11 0.11 78 1012.4
20260904132539 79 84 1.0 6.0 0.00 0.11 0.11 77 1012.4
20260904132039 79 67 1.0 3.0 0.00 0.11 0.11 79 1012.3
20260904131533 78 78 1.0 3.0 0.00 0.11 0.11 79 1012.1
20260904131027 78 90 0.0 3.0 0.00 0.11 0.11 80 1012.3
20260904130518 77 90 0.0 2.0 0.00 0.11 0.11 82 1012.2
20260904130012 77 90 0.0 2.0 0.00 0.11 0.11 83 1012.3
20260904125505 76 90 0.0 4.0 0.00 0.11 0.11 86 1012.4
20260904125224 76 91 0.0 4.0 0.00 0.11 0.11 90 1012.4
20260904124450 75 65 0.0 4.0 0.00 0.11 0.11 92 1012.3
20260904123944 74 65 1.0 4.0 0.00 0.11 0.11 92 1012.3
20260904123434 73 58 1.0 3.0 0.00 0.11 0.11 94 1012.2
20260904122927 72 58 0.0 3.0 0.00 0.11 0.11 95 1012.3
20260904122421 72 62 0.0 0.0 0.00 0.11 0.11 96 1012.2
20260904121911 72 62 0.0 0.0 0.00 0.11 0.11 97 1012.2
20260904121405 72 62 0.0 0.0 0.00 0.11 0.11 96 1012.1
20260904120858 71 62 0.0 0.0 0.00 0.11 0.11 97 1012.0
20260904120348 71 64 0.0 0.0 0.00 0.11 0.11 96 1012.1
20260904115842 71 64 0.0 1.0 0.00 0.11 0.11 97 1012.0
20260904115338 71 64 0.0 1.0 0.00 0.11 0.11 97 1011.9
20260904114827 71 64 0.0 1.0 0.00 0.11 0.11 97 1011.9
20260904114321 71 64 0.0 1.0 0.00 0.11 0.11 97 1011.9
20260904113815 71 64 0.0 0.0 0.00 0.11 0.11 97 1011.9
20260904113306 71 64 0.0 0.0 0.00 0.12 0.11 97 1011.9
20260904112759 71 64 0.0 0.0 0.00 0.12 0.11 97 1011.9
20260904112253 71 64 0.0 0.0 0.00 0.12 0.11 97 1011.8
20260904111743 71 64 0.0 0.0 0.00 0.12 0.11 97 1011.7
20260904111237 71 64 0.0 0.0 0.00 0.12 0.11 97 1011.6
20260904110731 71 64 0.0 0.0 0.00 0.12 0.11 97 1011.5
20260904110221 71 64 0.0 0.0 0.00 0.12 0.11 97 1011.5
20260904105939 71 64 0.0 0.0 0.00 0.12 0.11 97 1011.6
20260904105209 71 64 0.0 0.0 0.00 0.12 0.11 97 1011.7
20260904104659 71 64 0.0 0.0 0.00 0.12 0.11 97 1011.6
20260904104416 71 64 0.0 0.0 0.00 0.12 0.11 97 1011.5
20260904103647 71 64 0.0 0.0 0.00 0.12 0.11 97 1011.4
20260904103137 71 64 0.0 0.0 0.00 0.12 0.11 97 1011.5
20260904102631 71 64 0.0 0.0 0.00 0.12 0.11 97 1011.5
20260904102125 71 64 0.0 0.0 0.00 0.12 0.11 97 1011.4
20260904101615 71 64 0.0 0.0 0.00 0.12 0.11 97 1011.3
20260904101109 71 64 0.0 0.0 0.00 0.12 0.11 97 1011.3
20260904100613 71 64 0.0 0.0 0.00 0.12 0.11 97 1011.2
20260904100334 71 64 0.0 0.0 0.00 0.12 0.11 96 1011.1
20260904095601 71 64 0.0 0.0 0.00 0.12 0.11 96 1011.1
20260904095102 71 64 0.0 0.0 0.00 0.12 0.11 96 1011.0
20260904094559 71 64 0.0 0.0 0.00 0.12 0.11 96 1011.0
20260904094327 71 64 0.0 0.0 0.00 0.12 0.11 96 1011.1
20260904093822 71 64 0.0 0.0 0.00 0.12 0.11 96 1011.0
20260904093312 71 64 0.0 0.0 0.00 0.12 0.11 96 1011.1
20260904092553 71 64 0.0 0.0 0.00 0.12 0.11 96 1011.0
20260904092320 71 64 0.0 0.0 0.00 0.12 0.11 96 1011.0
20260904091551 71 64 0.0 0.0 0.00 0.12 0.11 96 1010.9
20260904091316 71 64 0.0 0.0 0.00 0.12 0.11 96 1011.0
20260904090546 71 64 0.0 0.0 0.00 0.12 0.11 96 1011.0
20260904090331 71 64 0.0 0.0 0.00 0.12 0.11 96 1011.0
20260904085548 71 64 0.0 0.0 0.00 0.13 0.11 96 1011.0
20260904085306 72 64 0.0 0.0 0.00 0.13 0.11 96 1010.9
20260904084545 72 64 0.0 0.0 0.00 0.13 0.11 96 1011.0
20260904084038 72 64 0.0 0.0 0.00 0.14 0.11 96 1011.0
20260904083532 72 64 0.0 0.0 0.00 0.14 0.11 96 1011.1
20260904083041 72 64 0.0 0.0 0.00 0.14 0.11 96 1011.2
20260904082527 72 64 0.0 0.0 0.00 0.14 0.11 96 1011.3
20260904082028 72 64 0.0 0.0 0.00 0.14 0.11 96 1011.2
20260904081539 72 64 0.0 0.0 0.00 0.15 0.11 95 1011.0
20260904081246 72 64 0.0 0.0 0.00 0.15 0.11 95 1011.0
20260904080525 72 64 0.0 0.0 0.00 0.15 0.11 96 1010.9
20260904080024 72 64 0.0 2.0 0.00 0.16 0.11 96 1011.0
20260904075524 72 64 0.0 2.0 0.00 0.16 0.11 95 1011.0
20260904075024 72 64 0.0 2.0 0.00 0.16 0.11 95 1010.8
20260904074522 72 64 1.0 2.0 0.00 0.16 0.11 95 1010.8
20260904074250 72 52 0.0 2.0 0.01 0.16 0.11 95 1010.8
20260904073516 72 52 0.0 2.0 0.01 0.16 0.11 95 1010.7
20260904073016 72 52 0.0 2.0 0.01 0.16 0.11 95 1010.6
20260904072737 72 52 0.0 2.0 0.01 0.16 0.11 95 1010.6
20260904072014 72 52 0.0 2.0 0.03 0.17 0.11 95 1010.6
20260904071513 72 52 0.0 2.0 0.06 0.17 0.11 95 1010.6
20260904071008 72 52 0.0 2.0 0.11 0.17 0.11 95 1010.3
20260904070504 72 52 0.0 2.0 0.11 0.17 0.11 94 1010.3
20260904070011 72 52 0.0 2.0 0.11 0.17 0.11 94 1010.2
20260904065505 72 52 0.0 2.0 0.11 0.17 0.11 94 1010.3
20260904065006 72 52 0.0 2.0 0.11 0.18 0.11 94 1010.4
20260904064730 72 52 0.0 2.0 0.11 0.18 0.11 94 1010.2
20260904064006 72 52 0.0 2.0 0.10 0.17 0.10 94 1010.3
20260904063504 72 52 0.0 4.0 0.10 0.18 0.10 93 1010.4
20260904063008 72 52 0.0 4.0 0.10 0.19 0.10 93 1010.5
20260904062506 73 52 1.0 4.0 0.10 0.20 0.10 93 1010.7
20260904062004 73 52 2.0 10.0 0.08 0.19 0.08 93 1010.8
20260904061505 74 177 2.0 10.0 0.05 0.16 0.05 93 1011.2
20260904061002 74 209 1.0 6.0 0.00 0.12 0.00 94 1012.0
20260904060503 74 202 0.0 0.0 0.00 0.13 0.00 94 1012.2
20260904060006 74 202 0.0 0.0 0.00 0.13 0.00 94 1011.9
20260904055453 74 202 0.0 0.0 0.00 0.13 0.00 94 1012.0
20260904054949 74 202 0.0 0.0 0.00 0.14 0.00 94 1011.4
20260904054442 74 202 0.0 0.0 0.00 0.14 0.00 94 1011.4
20260904053940 74 202 0.0 0.0 0.00 0.14 0.00 94 1011.5
20260904053440 74 202 0.0 0.0 0.00 0.14 0.00 94 1011.7
20260904052943 74 202 0.0 0.0 0.00 0.14 0.00 93 1011.9
20260904052447 74 202 0.0 0.0 0.00 0.15 0.00 93 1012.0
20260904052441 74 202 0.0 0.0 0.00 0.14 0.00 93 1011.9
20260904051701 74 202 0.0 0.0 0.00 0.15 0.00 93 1012.0
20260904051201 74 202 0.0 0.0 0.00 0.16 0.00 93 1011.9
20260904050447 74 202 0.0 0.0 0.00 0.17 0.00 93 1011.7
20260904045936 74 202 0.0 0.0 0.00 0.18 0.00 93 1011.5
20260904045437 75 202 0.0 0.0 0.00 0.19 0.00 92 1011.4
20260904044936 75 202 0.0 0.0 0.00 0.20 0.00 93 1011.5
20260904044436 75 202 0.0 0.0 0.00 0.20 0.00 93 1011.6
20260904043937 75 202 0.0 0.0 0.00 0.21 0.00 93 1011.6
20260904043439 75 202 0.0 0.0 0.00 0.22 0.00 93 1011.8
20260904043203 75 202 0.0 0.0 0.00 0.25 0.00 93 1011.8
20260904042438 75 202 0.0 0.0 0.00 0.34 0.00 93 1012.0
20260904041936 75 202 0.0 0.0 0.00 0.36 0.00 92 1012.0
20260904041438 75 202 0.0 0.0 0.00 0.36 0.00 92 1012.0
20260904040932 75 202 0.0 1.0 0.00 0.37 0.00 92 1012.1
20260904040433 75 202 0.0 1.0 0.00 0.37 0.00 92 1012.1
20260904040153 75 202 0.0 1.0 0.00 0.37 0.37 92 1012.3
20260904035433 75 202 0.0 0.0 0.00 0.37 0.37 92 1012.2
20260904034932 75 202 0.0 0.0 0.00 0.37 0.37 91 1012.3
20260904034433 75 202 0.0 0.0 0.00 0.37 0.37 91 1012.4
20260904033932 76 202 0.0 1.0 0.00 0.37 0.37 91 1012.3
20260904033646 76 202 0.0 1.0 0.00 0.37 0.37 91 1012.1
20260904033533 76 202 0.0 1.0 0.00 0.37 0.37 91 1012.3
20260904032420 76 202 0.0 1.0 0.00 0.37 0.37 91 1012.1
20260904031922 76 202 0.0 1.0 0.00 0.37 0.37 91 1012.1
20260904031422 76 202 0.0 1.0 0.00 0.37 0.37 90 1012.1
20260904030921 76 202 0.0 1.0 0.00 0.37 0.37 90 1012.1
20260904030418 76 202 0.0 1.0 0.00 0.37 0.37 90 1011.8
20260904025920 76 202 0.0 0.0 0.00 0.37 0.37 90 1012.0
20260904025419 76 202 0.0 2.0 0.00 0.37 0.37 90 1012.0
20260904024919 76 202 0.0 2.0 0.00 0.37 0.37 90 1012.1
20260904024414 76 202 0.0 1.0 0.00 0.37 0.37 90 1012.3
20260904023908 76 202 0.0 1.0 0.00 0.37 0.37 90 1012.5
20260904023616 76 202 0.0 0.0 0.00 0.37 0.37 90 1012.4
20260904022851 76 202 0.0 0.0 0.00 0.37 0.37 90 1012.6
20260904022347 76 202 0.0 0.0 0.00 0.37 0.37 90 1012.5
20260904021836 76 202 0.0 0.0 0.00 0.37 0.37 91 1012.8
20260904021330 76 202 0.0 0.0 0.00 0.37 0.37 90 1012.8
20260904020824 76 202 0.0 1.0 0.00 0.37 0.37 90 1012.9
20260904020538 76 202 0.0 1.0 0.00 0.37 0.37 90 1012.8
20260904015808 76 202 0.0 1.0 0.00 0.37 0.37 90 1012.9
20260904015306 76 202 0.0 1.0 0.00 0.37 0.37 90 1012.8
20260904014752 76 202 0.0 1.0 0.00 0.37 0.37 90 1012.9
20260904014246 76 202 0.0 1.0 0.00 0.37 0.37 90 1013.0
20260904013958 76 202 0.0 1.0 0.00 0.37 0.37 90 1013.1
20260904013230 76 202 0.0 1.0 0.00 0.37 0.37 90 1013.2
20260904012956 76 202 0.0 1.0 0.00 0.37 0.37 90 1013.2
20260904012218 76 202 0.0 1.0 0.00 0.37 0.37 91 1013.2
20260904011709 76 202 0.0 1.0 0.00 0.37 0.37 91 1013.0
20260904011204 76 202 0.0 1.0 0.00 0.37 0.37 91 1012.8
20260904010656 76 202 0.0 1.0 0.00 0.37 0.37 91 1012.9
20260904010146 76 202 0.0 1.0 0.00 0.37 0.37 91 1012.9
20260904005639 76 202 0.0 1.0 0.00 0.37 0.37 91 1012.9
20260904005137 77 202 0.0 1.0 0.00 0.37 0.37 91 1012.8
20260904004624 77 202 0.0 0.0 0.00 0.37 0.37 91 1012.7
20260904004345 77 202 0.0 0.0 0.00 0.37 0.37 91 1012.8
20260904003840 77 202 0.0 0.0 0.00 0.37 0.37 91 1012.8
20260904003546 77 202 0.0 0.0 0.00 0.37 0.37 91 1012.6
20260904002556 77 202 0.0 0.0 0.00 0.37 0.37 90 1012.6
20260904002050 77 202 0.0 0.0 0.00 0.37 0.37 90 1012.5
20260904001805 77 202 0.0 0.0 0.00 0.38 0.37 90 1012.5
20260904001035 78 202 0.0 0.0 0.00 0.38 0.37 90 1012.6
20260904000528 78 202 0.0 0.0 0.00 0.38 0.37 90 1012.7
20260904000018 78 202 0.0 0.0 0.00 0.38 0.37 89 1012.7
20260903235512 78 202 0.0 0.0 0.00 0.38 0.37 88 1012.6
20260903235006 78 202 0.0 0.0 0.00 0.38 0.37 87 1012.4
20260903234456 78 202 0.0 0.0 0.00 0.38 0.37 87 1012.4
20260903233950 78 202 0.0 0.0 0.00 0.38 0.37 86 1012.3
20260903233445 79 202 0.0 0.0 0.00 0.38 0.37 86 1012.2
20260903232934 79 202 0.0 0.0 0.00 0.38 0.37 85 1012.3
20260903232428 80 202 0.0 0.0 0.00 0.38 0.37 85 1012.3
20260903231922 80 202 0.0 0.0 0.00 0.38 0.37 85 1012.2
20260903231413 80 202 0.0 0.0 0.00 0.38 0.37 85 1012.1
20260903230906 80 202 0.0 0.0 0.00 0.38 0.37 85 1012.1
20260903230414 80 202 0.0 0.0 0.00 0.38 0.37 84 1012.2
20260903225850 80 202 0.0 0.0 0.00 0.38 0.37 84 1012.2